Weather History for Hollywood, FL

Change the Weather History Date:

Monday, April 1, 2013

  Actual Average (KFLL) Record (KFLL)
Temperature  
Mean Temperature 79 °F 75 °F  
Max Temperature 88 °F 81 °F 90 °F (1985)
Min Temperature 71 °F 68 °F 44 °F (1839)
Degree Days  
Heating Degree Days 0 0  
Month to date heating degree days 0  
Since 1 July heating degree days 111  
Cooling Degree Days 14 10  
Month to date cooling degree days 10  
Year to date cooling degree days 620  
Growing Degree Days 29 (Base 50)    
Moisture  
Dew Point 66 °F    
Average Humidity 72    
Maximum Humidity 91    
Minimum Humidity 40    
Precipitation  
Precipitation 0.12 in 0.14 in 2.74 in (1962)
Month to date precipitation 0.14  
Year to date precipitation 10.09  
Snow  
Snow 0.00 in - - ()
Month to date snowfall  
Since 1 July snowfall  
Snow Depth -    
Sea Level Pressure  
Sea Level Pressure 30.04 in    
Wind  
Wind Speed 8 mph (South)    
Max Wind Speed 20 mph    
Max Gust Speed 23 mph    
Visibility 10 miles    
Events Rain    
T = Trace of Precipitation, MM = Missing Value Source: NWS Daily Summary

Daily Weather History Graph

Daily Weather History Graph

Search for Another Location

Airport:

Trip Planner

Search our weather history database for the weather conditions in past years. The results will help you decide how hot, cold, wet, or windy it might be!

Date:

Astronomy

Apr. 01, 2013 Rise Set
Actual Time 7:11 AM EDT 7:37 PM EDT
Civil Twilight 6:48 AM EDT 8:01 PM EDT
Nautical Twilight 6:21 AM EDT 8:28 PM EDT
Astronomical Twilight 5:54 AM EDT 8:55 PM EDT
Moon 12:19 AM EDT (4/1) 11:21 AM EDT (4/1)
Length of Visible Light 13h 12m
Length of Day
12h 26m
Waning Gibbous, 67% of the Moon is Illuminated
Apr 1
Waning Gibbous
Apr 3
Last Quarter
Apr 10
New
Apr 18
First Quarter
Apr 25
Full

Hourly Weather History & Observations

Time (EDT) Temp. Heat Index Dew Point Humidity Pressure Visibility Wind Dir Wind Speed Gust Speed Precip Events Conditions
12:53 AM 71.1 °F - 66.0 °F 84% 30.08 in 10.0 mi SSE 5.8 mph - N/A   Partly Cloudy
1:53 AM 73.0 °F - 66.0 °F 79% 30.05 in 10.0 mi SSE 8.1 mph - N/A   Partly Cloudy
2:53 AM 73.0 °F - 66.0 °F 79% 30.04 in 10.0 mi SSE 8.1 mph - N/A   Clear
3:53 AM 73.0 °F - 66.9 °F 81% 30.03 in 10.0 mi South 5.8 mph - N/A   Scattered Clouds
4:53 AM 73.0 °F - 66.9 °F 81% 30.02 in 10.0 mi SSE 5.8 mph - N/A   Mostly Cloudy
5:53 AM 72.0 °F - 68.0 °F 87% 30.03 in 10.0 mi SSE 5.8 mph - N/A   Scattered Clouds
6:53 AM 72.0 °F - 68.0 °F 87% 30.04 in 10.0 mi South 6.9 mph - N/A   Clear
7:53 AM 72.0 °F - 69.1 °F 91% 30.05 in 10.0 mi SSE 6.9 mph - N/A   Clear
8:53 AM 75.9 °F - 70.0 °F 82% 30.08 in 10.0 mi South 8.1 mph - N/A   Clear
9:53 AM 79.0 °F - 69.1 °F 72% 30.08 in 10.0 mi South 8.1 mph - N/A   Mostly Cloudy
10:02 AM 78.8 °F - 69.8 °F 74% 30.08 in 10.0 mi South 10.4 mph - N/A   Scattered Clouds
10:53 AM 80.1 °F 82.1 °F 66.0 °F 62% 30.08 in 10.0 mi SSW 9.2 mph - N/A   Partly Cloudy
11:53 AM 82.9 °F 84.0 °F 63.0 °F 51% 30.07 in 10.0 mi SW 10.4 mph 18.4 mph N/A   Mostly Cloudy
12:53 PM 84.0 °F 84.4 °F 61.0 °F 46% 30.05 in 10.0 mi SW 9.2 mph - N/A   Scattered Clouds
1:53 PM 87.1 °F 86.7 °F 60.1 °F 40% 30.03 in 10.0 mi WSW 11.5 mph 16.1 mph N/A   Scattered Clouds
2:53 PM 79.0 °F - 63.0 °F 58% 30.03 in 10.0 mi SSE 19.6 mph - N/A   Mostly Cloudy
3:53 PM 77.0 °F - 63.0 °F 62% 30.02 in 10.0 mi South 17.3 mph 23.0 mph 0.00 in   Partly Cloudy
4:53 PM 75.0 °F - 64.9 °F 71% 30.00 in 10.0 mi SSE 9.2 mph - 0.07 in   Mostly Cloudy
5:53 PM 80.1 °F 81.9 °F 64.9 °F 60% 29.99 in 10.0 mi SSW 11.5 mph - N/A   Mostly Cloudy
6:53 PM 75.9 °F - 64.0 °F 67% 30.01 in 10.0 mi South 3.5 mph - 0.04 in Rain Light Rain
7:53 PM 73.0 °F - 66.9 °F 81% 30.02 in 10.0 mi Variable 3.5 mph - 0.01 in   Overcast
8:53 PM 73.0 °F - 66.0 °F 79% 30.03 in 10.0 mi Calm Calm - N/A   Partly Cloudy
9:53 PM 72.0 °F - 64.0 °F 76% 30.04 in 10.0 mi SW 4.6 mph - N/A   Clear
10:53 PM 72.0 °F - 64.9 °F 78% 30.06 in 10.0 mi WSW 5.8 mph - N/A   Clear
11:53 PM 71.1 °F - 64.0 °F 78% 30.06 in 10.0 mi West 3.5 mph - N/A   Clear